Hourly Data Report for October 03, 2017

All times are specified in Local Standard Time (LST). Add 1 hour to adjust for Daylight Saving Time where and when it is observed.

WHITE ROCK CAMPBELL SCIENTIFIC
BRITISH COLUMBIA

49°01'05.000" N
122°47'02.000" W
13.00 m
1108910
71785
WWK

Download Data

Hourly Data (October 2017)
Hourly Data Report for October 3, 2017
Temp Definition
°C
Dew Point Temp Definition
°C
Rel Hum Definition
%
Wind Dir Definition
10's deg

Wind Spd Definition
km/h
Visibility Definition
km
Stn Press Definition
kPa
Hmdx Definition


Wind Chill Definition


Weather Definition


TIME
00:00 10.1 5.6 74 12 1   102.38     LegendNANA
01:00 9.4 5.2 75 6 4   102.42     LegendNANA
02:00 8.8 4.4 74 2 5   102.43     LegendNANA
03:00 8.8 3.2 68 3 2   102.46     LegendNANA
04:00 8.7 3.3 69 3 2   102.48     LegendNANA
05:00 7.6 3.6 75   0   102.50     LegendNANA
06:00 7.1 3.9 80   0   102.53     LegendNANA
07:00 7.0 3.6 79 9 3   102.54     LegendNANA
08:00 10.9 4.7 66 4 2   102.58     LegendNANA
09:00 15.0 3.9 47 5 5   102.58     LegendNANA
10:00 16.1 2.3 39 26 4   102.60     LegendNANA
11:00 16.1 4.5 46 27 7   102.55     LegendNANA
12:00 15.1 6.9 58 27 4   102.50     LegendNANA
13:00 16.4 9.8 65 26 5   102.45     LegendNANA
14:00 15.6 8.0 61 26 5   102.39     LegendNANA
15:00 15.8 9.9 68 23 7   102.32     LegendNANA
16:00 16.9 8.6 58 25 6   102.27     LegendNANA
17:00 17.2 5.3 45 24 1   102.22     LegendNANA
18:00 13.6 7.0 64   0   102.19     LegendNANA
19:00 11.5 6.5 71   0   102.19     LegendNANA
20:00 10.2 5.6 73 3 1   102.19     LegendNANA
21:00 8.6 5.3 80   0   102.19     LegendNANA
22:00 8.0 5.2 82   0   102.17     LegendNANA
23:00 7.5 5.4 87   0   102.18     LegendNANA

Notes on Data Quality.

Legend

  • E = Estimated
  • M = Missing
  • NA = Not Available
  • ‡ = Partner data that is not subject to review by the National Climate Archives
Date modified: